Weather Roundup
Issued by NWS Springfield, MO

Home | Current Version | Previous Version | Text Only | Print | Product List | Glossary On
Versions: 1 2 3 4 5 6 7 8 9 10 11 12 13 14 15 16 17 18 19 20 21 22 23 24 25 26 27 28 29 30 31 32 33 34 35 36 37 38 39 40 41 42 43 44 45 46 47 48 49 50
000
NZUS99 KSGF 191557
HRRSGF

HOURLY WEATHER
NATIONAL WEATHER SERVICE SPRINGFIELD MO
1100 AM CDT SAT AUG 19 2017

......SGF CWA......

CITY           SKY/WX    TMP DP  RH WIND       PRES   REMARKS
SPRINGFIELD    SUNNY     85  76  74 W9        30.00F HX  94
JOPLIN         CLOUDY    82  76  81 W8        30.01R
WEST PLAINS    SUNNY     85  70  60 W6        30.03S
ROLLA          SUNNY     82  72  71 CALM      30.01S
BRANSON        PTSUNNY   81  73  78 W7        30.04S

......SURROUNDING SGF CWA......

CITY           SKY/WX    TMP DP  RH WIND       PRES   REMARKS
CHANUTE        SUNNY     86  75  69 SW7       29.98S HX  95
PARSONS        SUNNY     86  76  71 S6        29.99S HX  96
COFFEYVILLE    SUNNY     86  77  74 S5        29.97F HX  97
EMPORIA        SUNNY     82  70  66 NE5       29.98R
HARRISON AR    SUNNY     85  74  69 W7        30.03S HX  92

......KANSAS AND MISSOURI......

CITY           SKY/WX    TMP DP  RH WIND       PRES   REMARKS
KANSAS CTY INT SUNNY     82  69  64 CALM      29.99R
SEDALIA        SUNNY     84  75  74 CALM      30.00R HX  92
ST JOSEPH      SUNNY     81  70  69 CALM      29.98S
ST LOUIS       MOSUNNY   82  69  64 N5        29.97R
WICHITA        MOSUNNY   89  73  59 VRB7      29.97R HX  97
TOPEKA         SUNNY     84  70  62 NE3       29.98S
OLATHE         SUNNY     84  68  58 VRB3      29.99R

......TENNESSEE......

CITY           SKY/WX    TMP DP  RH WIND       PRES   REMARKS
MEMPHIS        NOT AVBL
NASHVILLE      MOSUNNY   86  67  52 SW5       30.02S

......ARKANSAS.......

CITY           SKY/WX    TMP DP  RH WIND       PRES   REMARKS
FAYETTEVILLE   SUNNY     84  76  76 SW7       30.03S HX  93
FT SMITH       SUNNY     85  75  72 CALM      30.00S HX  93
LITTLE ROCK    MOSUNNY   86  79  79 CALM      29.99S HX  99

......OKLAHOMA.......

CITY           SKY/WX    TMP DP  RH WIND       PRES   REMARKS
TULSA          MOSUNNY   89  75  63 VRB7      29.96F HX  99
PONCA CITY     SUNNY     86  74  67 W6        29.97S HX  94
MCALESTER      SUNNY     89  76  65 S5        30.01S HX 100
OKLAHOMA CITY  MOSUNNY   86  72  62 SW9       30.01R HX  92

......IOWA............

CITY           SKY/WX    TMP DP  RH WIND       PRES   REMARKS
DES MOINES     NOT AVBL
QUAD CITIES    SUNNY     75  62  64 VRB3      29.98S

......ILLINOIS........

CITY           SKY/WX    TMP DP  RH WIND       PRES   REMARKS
QUINCY         SUNNY     79  68  69 CALM      29.96S
CHICAGO        MOSUNNY   77  57  50 CALM      29.97R




USA.gov is the U.S. government's official web portal to all federal, state and local government web resources and services.